List of Articles
번호 분류 제목 글쓴이 날짜 조회 수 추천 수
355 어코드 1996 혼다 어코드 file 구름비 2017.11.05 20 0
354 어코드 2018 혼다 어코드 2.0t 테스트영상 (유튭) Benjamin 2017.11.04 17 0
353 피트 2018 혼다 피트 Sport file Lucifer 2017.10.31 21 0
352 레전드 2018 혼다 레전드 file 요구르트 2017.10.30 46 0
351 기타 2018 혼다 스포츠 EV 컨셉카 file 수현 2017.10.27 50 0
350 기타 새롭게 공개한 혼다 스포츠 EV 콘셉트 (유튭) 도도한남자 2017.10.25 25 0
349 시빅 2018 혼다 시빅 해치백 file Rachel 2017.10.24 17 0
348 어코드 2018 혼다 어코드 VS 2018 토요타 캠리 file 너랑나랑 2017.10.17 74 0
347 시빅 2018 혼다 시빅 타입R file 시원달콤콘 2017.10.16 34 0
346 파일럿 혼다 파일럿 2017년형-국내 네티즌 반응(유투부) 리트고 2017.10.16 51 0
345 시빅 2017 혼다 시빅 RS 해치백 file 글래머에디터 2017.10.15 18 0
344 어코드 2018 신형 혼다 어코드 2.0T [데이터 주의] file 디투냥 2017.10.15 38 0
343 시빅 2017 혼다 시빅 Si 세단 file 제임스타임 2017.10.14 20 0
342 크로스투어 2015 혼다 크로스투어 ELX V6 4WD(인테리어/익스티어리어)(유투부) 나선형 2017.10.11 16 0
341 HR-V 2016 혼다 HR-V충돌 테스트(유투부) 나선형 2017.10.11 23 0
340 CR-V 2017 혼다 CR-V vs 2017 혼다 HR-V (유투부) 나선형 2017.10.11 27 0
339 HR-V 2017 혼다 CR-V vs 2017 혼다 HR-V (유투부) 나선형 2017.10.11 13 0
338 시빅 길고 낮고 넓어진 혼다 10세대 올 뉴 시빅(유투부) 나선형 2017.10.11 23 0
337 시빅 2017년형 혼다 시빅-국내 네티즌 반응(유투부) 나선형 2017.10.11 18 0
336 오딧세이 2018 혼다 오딧세이 충돌 테스트 (유투부) 호랑이 2017.10.10 16 0
335 어코드 [0-100km/h] 혼다 어코드 하이브리드 가속 성능(유투부) 호랑이 2017.10.10 34 0
334 어코드 2018년형 혼다 어코드-국내 네티즌 반응(유투부) 호랑이 2017.10.10 20 0
목록
Board Pagination Prev 1 2 3 4 5 6 7 8 9 10 ... 18 Next
/ 18